Location: Cantaing
(50.1487°N, 3.1675°E)
Time: 14:52:05
(UTC+00:00)

Cosmos 1500 Rocket - Visible Passes

Search period start: 19 April 2026 00:00
Search period end: 29 April 2026 00:00
Orbit: 596 x 623 km, 82.5° (Epoch: 19 April)

Date Brightness Start Highest point End Pass type
(mag) Time Alt. Az. Time Alt. Az. Time Alt. Az.
19 Apr 6.4 03:03:39 10° NNE 03:06:55 20° ENE 03:10:10 10° ESE visible
20 Apr 5.7 03:17:35 10° N 03:21:29 30° ENE 03:25:23 10° SE visible
21 Apr 4.7 03:31:42 10° N 03:35:58 47° ENE 03:40:15 10° SSE visible
22 Apr 6.9 02:10:42 10° NE 02:11:54 11° ENE 02:13:07 10° ENE visible
22 Apr 3.8 03:45:58 10° N 03:50:23 78° E 03:54:49 10° SSE visible
23 Apr 6.5 02:23:43 10° NNE 02:26:36 17° ENE 02:29:27 10° ESE visible
23 Apr 3.6 04:00:21 10° NNW 04:04:44 65° W 04:09:06 10° S visible
24 Apr 5.9 02:37:31 10° NNE 02:41:11 25° ENE 02:44:52 10° SE visible
25 Apr 5.1 02:51:34 10° N 02:55:43 39° ENE 02:59:52 10° SE visible
26 Apr 4.1 03:05:46 10° N 03:10:11 63° ENE 03:14:33 10° SSE visible
27 Apr 6.5 01:43:54 10° NNE 01:46:15 14° ENE 01:48:37 10° E visible
27 Apr 3.5 03:20:06 10° NNW 03:24:33 81° W 03:28:58 10° S visible
28 Apr 6.1 01:57:30 10° NNE 02:00:53 21° ENE 02:04:17 10° ESE visible
28 Apr 3.8 03:34:34 10° NNW 03:38:51 49° W 03:43:06 10° SSW visible
